This is the latest recevied weather packets stored in our database for station/object VK1KCM-5. If no packets are shown the sender has not sent any weather packets the latest 10 day(s).
| Time | Temp. | Humidity | Pressure | Rain* | Wind** | Luminosity | Snow |
|---|---|---|---|---|---|---|---|
| 1787553192 | 16.67° C | 65% | 1017.9 hPa | 0 mm | - | - | - |
| 1787552903 | 16.67° C | 65% | 1017.8 hPa | 0 mm | - | - | - |
| 1787552658 | 17.22° C | 63% | 1017.5 hPa | 0 mm | - | - | - |
| 1787552363 | 17.22° C | 62% | 1017.6 hPa | 0 mm | - | - | - |
| 1787552083 | 17.22° C | 62% | 1017.4 hPa | 0 mm | - | - | - |
| 1787551808 | 17.78° C | 60% | 1017.5 hPa | 0 mm | - | - | - |
| 1787551533 | 17.78° C | 60% | 1017.5 hPa | 0 mm | - | - | - |
| 1787551293 | 17.78° C | 60% | 1017.4 hPa | 0 mm | - | - | - |
| 1787551053 | 17.78° C | 60% | 1017.5 hPa | 0 mm | - | - | - |
| 1787550788 | 17.22° C | 60% | 1017.4 hPa | 0 mm | - | - | - |
| 1787550543 | 17.22° C | 61% | 1017.8 hPa | 0 mm | - | - | - |
| 1787550278 | 17.22° C | 61% | 1017.4 hPa | 0 mm | - | - | - |
| 1787550003 | 17.22° C | 61% | 1017.5 hPa | 0 mm | - | - | - |
| 1787549708 | 17.22° C | 60% | 1017.7 hPa | 0 mm | - | - | - |
| 1787549428 | 17.22° C | 62% | 1017.7 hPa | 0 mm | - | - | - |
| 1787549183 | 17.22° C | 62% | 1017.7 hPa | 0 mm | - | - | - |
| 1787548943 | 17.78° C | 62% | 1017.3 hPa | 0 mm | - | - | - |
| 1787548678 | 17.22° C | 62% | 1017.6 hPa | 0 mm | - | - | - |
| 1787548438 | 17.78° C | 61% | 1017.6 hPa | 0 mm | - | - | - |
| 1787548168 | 17.22° C | 63% | 1017.9 hPa | 0 mm | - | - | - |
| 1787547883 | 17.22° C | 63% | 1017.8 hPa | 0 mm | - | - | - |
| 1787547613 | 18.33° C | 61% | 1017.6 hPa | 0 mm | - | - | - |
| 1787547328 | 17.78° C | 61% | 1017.8 hPa | 0 mm | - | - | - |
| 1787547058 | 17.78° C | 61% | 1017.8 hPa | 0 mm | - | - | - |
| 1787546783 | 17.78° C | 60% | 1017.6 hPa | 0 mm | - | - | - |
* Rain latest hour (hover to see other rain measurements)
** Current wind speed in m/s (hover to see current wind gust speed)